Weather History for Grand Forks AFB, ND

Change the Weather History Date:

Thursday, March 27, 2014

  Actual Average Record
Temperature  
Mean Temperature 22 °F -  
Max Temperature 29 °F 39 °F 57 °F (1998)
Min Temperature 15 °F 22 °F -5 °F (2013)
Degree Days  
Heating Degree Days 42    
Moisture  
Dew Point 18 °F    
Average Humidity 78    
Maximum Humidity 97    
Minimum Humidity 52    
Precipitation  
Precipitation 0.00 in - - ()
Sea Level Pressure  
Sea Level Pressure 29.79 in    
Wind  
Wind Speed 17 mph (NNE)    
Max Wind Speed 25 mph    
Max Gust Speed 33 mph    
Visibility 10 miles    
Events      
Averages and records for this station are not official NWS values.
T = Trace of Precipitation, MM = Missing Value Source: NWS Daily Summary

Daily Weather History Graph

Daily Weather History Graph

Search for Another Location

Airport:

Trip Planner

Search our weather history database for the weather conditions in past years. The results will help you decide how hot, cold, wet, or windy it might be!

Date:

Astronomy

Mar. 27, 2014 Rise Set
Actual Time 7:18 AM CDT 7:52 PM CDT
Civil Twilight 6:46 AM CDT 8:23 PM CDT
Nautical Twilight 6:09 AM CDT 9:00 PM CDT
Astronomical Twilight 5:31 AM CDT 9:39 PM CDT
Moon 5:24 AM CDT (3/27) 4:28 PM CDT (3/27)
Length of Visible Light 13h 36m
Length of Day
12h 34m
Waning Crescent, 13% of the Moon is Illuminated
Mar 27
Waning Crescent
Mar 30
New
Apr 7
First Quarter
Apr 15
Full
Apr 22
Last Quarter

Hourly Weather History & Observations

Time (CDT) Temp. Windchill Dew Point Humidity Pressure Visibility Wind Dir Wind Speed Gust Speed Precip Events Conditions
12:58 AM 26.1 °F 13.6 °F 24.8 °F 95% 29.67 in 10.0 mi NE 16.1 mph - N/A   Scattered Clouds
1:00 AM 26.6 °F 15.2 °F 24.8 °F 93% 29.62 in 10.0 mi NE 13.8 mph - N/A   Scattered Clouds
1:58 AM 24.4 °F 13.5 °F 23.7 °F 97% 29.66 in 10.0 mi NE 11.5 mph - N/A   Scattered Clouds
2:28 AM 24.8 °F 13.4 °F 23.0 °F 93% 29.62 in 10.0 mi NNE 12.7 mph - N/A   Mostly Cloudy
2:30 AM 24.8 °F 13.4 °F 23.0 °F 93% 29.62 in 10.0 mi NNE 12.7 mph - N/A   Mostly Cloudy
2:55 AM 24.8 °F 11.9 °F 23.0 °F 93% 29.62 in 10.0 mi NNE 16.1 mph - N/A   Overcast
2:58 AM 24.3 °F 11.7 °F 23.4 °F 96% 29.68 in 10.0 mi NNE 15.0 mph - N/A   Overcast
3:38 AM 24.8 °F 11.5 °F 23.0 °F 93% 29.63 in 10.0 mi NNE 17.3 mph - N/A   Overcast
3:58 AM 24.6 °F 11.7 °F 22.8 °F 93% 29.69 in 10.0 mi NNE 16.1 mph - N/A   Overcast
4:08 AM 24.8 °F 11.5 °F 23.0 °F 93% 29.65 in 10.0 mi NNE 17.3 mph - N/A   Overcast
4:58 AM 24.3 °F 11.2 °F 22.3 °F 92% 29.71 in 10.0 mi NNE 16.1 mph - N/A   Overcast
5:48 AM 24.8 °F 11.1 °F 21.2 °F 86% 29.68 in 10.0 mi NNE 18.4 mph 25.3 mph N/A   Overcast
5:58 AM 24.3 °F 10.0 °F 21.7 °F 90% 29.72 in 10.0 mi NNE 19.6 mph - N/A   Overcast
6:43 AM 23.0 °F 9.6 °F 21.2 °F 93% 29.69 in 10.0 mi NNE 16.1 mph - N/A   Overcast
6:58 AM 23.0 °F 9.2 °F 19.4 °F 86% 29.75 in 10.0 mi NNE 17.3 mph - N/A   Overcast
7:58 AM 21.0 °F 7.6 °F 17.8 °F 87% 29.79 in 10.0 mi NNE 15.0 mph - N/A   Mostly Cloudy
8:58 AM 22.3 °F 9.2 °F 18.1 °F 84% 29.81 in 10.0 mi NNE 15.0 mph - N/A   Clear
9:27 AM 24.8 °F 11.5 °F 19.4 °F 80% 29.75 in 10.0 mi NNE 17.3 mph - N/A   Scattered Clouds
9:58 AM 24.3 °F 10.4 °F 18.3 °F 78% 29.82 in 10.0 mi NNE 18.4 mph - 0.00 in   Mostly Cloudy
10:06 AM 24.8 °F 11.1 °F 19.4 °F 80% 29.76 in 10.0 mi NNE 18.4 mph - N/A   Overcast
10:50 AM 26.6 °F 13.4 °F 19.4 °F 74% 29.77 in 10.0 mi NNE 18.4 mph - N/A   Light Freezing Rain
10:53 AM 26.6 °F 13.4 °F 19.4 °F 74% 29.77 in 10.0 mi NNE 18.4 mph - N/A   Partly Cloudy
10:55 AM 26.6 °F 13.1 °F 19.4 °F 74% 29.77 in 10.0 mi NNE 19.6 mph - N/A   Partly Cloudy
10:58 AM 26.8 °F 13.3 °F 18.7 °F 72% 29.82 in 10.0 mi NE 19.6 mph - 0.00 in   Partly Cloudy
11:58 AM 28.6 °F 15.0 °F 19.2 °F 68% 29.83 in 10.0 mi NNE 21.9 mph 27.6 mph 0.00 in   Clear
12:58 PM 28.8 °F 15.5 °F 17.4 °F 63% 29.84 in 10.0 mi NNE 20.7 mph 33.4 mph N/A   Clear
1:58 PM 29.3 °F 15.0 °F 15.6 °F 57% 29.86 in 10.0 mi North 25.3 mph 29.9 mph 0.00 in   Light Freezing Rain
2:03 PM 28.4 °F 14.7 °F 15.8 °F 59% 29.80 in 10.0 mi NNE 21.9 mph 29.9 mph N/A   Clear
2:58 PM 29.7 °F 16.7 °F 16.0 °F 57% 29.86 in 10.0 mi North 20.7 mph 31.1 mph 0.00 in   Clear
3:58 PM 28.8 °F 14.9 °F 13.3 °F 52% 29.87 in 10.0 mi North 23.0 mph 31.1 mph N/A   Clear
4:58 PM 28.0 °F 13.9 °F 14.5 °F 57% 29.89 in 10.0 mi North 23.0 mph 28.8 mph N/A   Clear
5:58 PM 26.1 °F 11.6 °F 13.8 °F 60% 29.91 in 10.0 mi NNW 21.9 mph 28.8 mph N/A   Clear
6:58 PM 23.9 °F 9.5 °F 13.1 °F 63% 29.94 in 10.0 mi North 19.6 mph 25.3 mph N/A   Clear
7:58 PM 21.0 °F 5.4 °F 11.7 °F 67% 29.96 in 10.0 mi North 20.7 mph 24.2 mph N/A   Clear
8:58 PM 19.0 °F 3.6 °F 10.9 °F 71% 29.99 in 10.0 mi North 18.4 mph 23.0 mph N/A   Clear
9:58 PM 17.6 °F 2.7 °F 9.0 °F 69% 30.01 in 10.0 mi North 16.1 mph 24.2 mph N/A   Clear
10:58 PM 16.9 °F 2.8 °F 8.4 °F 69% 30.03 in 10.0 mi North 13.8 mph - N/A   Clear
11:58 PM 15.8 °F 3.4 °F 8.1 °F 72% 30.06 in 10.0 mi North 10.4 mph - N/A   Clear